Location: Chiroubles
(46.1812°N, 4.6660°E)
Time: 16:43:47
(UTC+00:00)

Cosmos 841 Rocket - Pass Details

Date: 15 August 2020
Orbit: 746 x 773 km, 74.0° (Epoch: 22 September)

Event Time Altitude Azimuth Distance (km) Brightness Sun altitude
Rises 20:19:49 0° 343° (NNW) 3,235 7.7 -14.4°
Reaches altitude 10° 20:22:19 10° 350° (N) 2,309 6.7 -14.7°
Maximum altitude 20:27:18 43° 61° (ENE) 1,074 4.1 -15.4°
Enters shadow 20:29:56 25° 118° (ESE) 1,528 4.5 -15.7°
